CW4745 Weather Reports


Display with metric or nautical units.
time (UTC)temp
F
wind
direction
speed
MPH
gust
MPH
rain 1hr
in
rain 24hr
in
rain mn
in
humidity
%
barometer
mb
20170525201232 63 26 2.0 5.0 0.00 0.00 0.00 75 1023.8
20170525200231 64 43 3.0 5.0 0.00 0.00 0.00 75 1023.8
20170525195231 64 16 3.0 5.0 0.00 0.00 0.00 74 1023.7
20170525194230 65 42 2.0 6.0 0.00 0.00 0.00 71 1023.6
20170525193230 65 42 5.0 9.0 0.00 0.00 0.00 70 1023.5
20170525192229 66 43 4.0 7.0 0.00 0.00 0.00 69 1023.5
20170525191228 66 63 4.0 7.0 0.00 0.00 0.00 68 1023.4
20170525190230 67 31 4.0 7.0 0.00 0.00 0.00 67 1023.4
20170525185229 67 69 4.0 7.0 0.00 0.00 0.00 67 1023.4
20170525184228 67 28 3.0 7.0 0.00 0.00 0.00 66 1023.4
20170525183229 67 76 4.0 6.0 0.00 0.00 0.00 65 1023.3
20170525182228 68 39 4.0 7.0 0.00 0.00 0.00 64 1023.5
20170525181228 68 40 3.0 9.0 0.00 0.00 0.00 63 1023.5
20170525180228 69 71 4.0 7.0 0.00 0.00 0.00 62 1023.6
20170525175229 69 36 4.0 6.0 0.00 0.00 0.00 61 1023.6
20170525174227 70 35 3.0 9.0 0.00 0.00 0.00 59 1023.7
20170525173227 70 60 6.0 10.0 0.00 0.00 0.00 57 1023.7
20170525172227 70 55 5.0 11.0 0.00 0.00 0.00 56 1023.7
20170525171226 70 40 5.0 10.0 0.00 0.00 0.00 57 1023.9
20170525170225 71 45 6.0 10.0 0.00 0.00 0.00 58 1023.9
20170525165225 71 32 6.0 12.0 0.00 0.00 0.00 60 1023.9
20170525164225 71 40 5.0 11.0 0.00 0.00 0.00 59 1024.0
20170525163225 71 40 6.0 12.0 0.00 0.00 0.00 60 1024.0
20170525162226 71 21 7.0 10.0 0.00 0.00 0.00 59 1024.1
20170525161225 71 46 5.0 11.0 0.00 0.00 0.00 58 1024.2
20170525160224 71 7 3.0 9.0 0.00 0.00 0.00 58 1024.1
20170525155225 72 52 4.0 9.0 0.00 0.00 0.00 56 1024.2
20170525154221 72 88 3.0 9.0 0.00 0.00 0.00 53 1024.2
20170525153223 72 31 4.0 7.0 0.00 0.00 0.00 54 1024.4
20170525152223 72 35 4.0 10.0 0.00 0.00 0.00 54 1024.5
20170525151224 72 15 3.0 7.0 0.00 0.00 0.00 52 1024.6
20170525150222 72 59 3.0 9.0 0.00 0.00 0.00 53 1024.6
20170525145221 73 28 2.0 6.0 0.00 0.00 0.00 52 1024.6
20170525144222 72 90 4.0 7.0 0.00 0.00 0.00 53 1024.6
20170525143219 72 28 4.0 9.0 0.00 0.00 0.00 54 1024.5
20170525142221 72 69 5.0 11.0 0.00 0.00 0.00 54 1024.7
20170525141222 73 14 5.0 9.0 0.00 0.00 0.00 56 1024.8
20170525140221 73 18 3.0 9.0 0.00 0.00 0.00 53 1024.8
20170525135222 73 73 7.0 11.0 0.00 0.00 0.00 54 1024.9
20170525134219 72 28 3.0 13.0 0.00 0.00 0.00 55 1024.9
20170525133220 73 3 6.0 10.0 0.00 0.00 0.00 54 1025.0
20170525132221 73 45 4.0 11.0 0.00 0.00 0.00 55 1025.1
20170525131220 72 46 2.0 7.0 0.00 0.00 0.00 57 1025.0
20170525130219 72 93 4.0 9.0 0.00 0.00 0.00 55 1025.1
20170525125219 73 32 2.0 10.0 0.00 0.00 0.00 55 1025.1
20170525124219 72 8 5.0 9.0 0.00 0.00 0.00 54 1025.2
20170525123216 71 43 3.0 7.0 0.00 0.00 0.00 57 1025.1
20170525122218 72 64 5.0 9.0 0.00 0.00 0.00 56 1025.1
20170525121219 71 36 3.0 12.0 0.00 0.00 0.00 57 1025.2
20170525120218 71 14 3.0 13.0 0.00 0.00 0.00 59 1025.2
20170525115218 71 11 6.0 12.0 0.00 0.00 0.00 60 1025.3
20170525114218 71 7 5.0 11.0 0.00 0.00 0.00 60 1025.4
20170525113217 70 36 8.0 13.0 0.00 0.00 0.00 60 1025.4
20170525112218 70 42 6.0 12.0 0.00 0.00 0.00 61 1025.4
20170525111217 69 308 6.0 11.0 0.00 0.00 0.00 60 1025.4
20170525110217 69 7 4.0 10.0 0.00 0.00 0.00 61 1025.5
20170525105215 69 317 4.0 11.0 0.00 0.00 0.00 60 1025.5
20170525104216 68 6 4.0 11.0 0.00 0.00 0.00 61 1025.6
20170525103216 69 322 4.0 9.0 0.00 0.00 0.00 61 1025.6
20170525102216 68 9 4.0 10.0 0.00 0.00 0.00 62 1025.7
20170525101216 68 2 4.0 10.0 0.00 0.00 0.00 62 1025.6
20170525100215 68 14 6.0 10.0 0.00 0.00 0.00 62 1025.7
20170525095215 68 16 5.0 10.0 0.00 0.00 0.00 62 1025.7
20170525094215 68 10 4.0 11.0 0.00 0.00 0.00 62 1025.6
20170525093214 68 311 4.0 11.0 0.00 0.00 0.00 63 1025.6
20170525092214 68 308 6.0 10.0 0.00 0.00 0.00 64 1025.6
20170525091215 68 9 4.0 9.0 0.00 0.00 0.00 65 1025.5
20170525090213 68 8 4.0 7.0 0.00 0.00 0.00 66 1025.5
20170525085213 68 16 2.0 5.0 0.00 0.00 0.00 65 1025.5
20170525084213 68 15 1.0 4.0 0.00 0.00 0.00 65 1025.4
20170525083213 68 16 2.0 5.0 0.00 0.00 0.00 65 1025.3
20170525082213 67 9 0.0 5.0 0.00 0.00 0.00 67 1025.4
20170525081212 67 196 2.0 4.0 0.00 0.00 0.00 66 1025.4
20170525080212 67 33 0.0 2.0 0.00 0.00 0.00 66 1025.5
20170525075211 66 32 1.0 4.0 0.00 0.00 0.00 67 1025.5
20170525074212 65 16 2.0 4.0 0.00 0.00 0.00 68 1025.4
20170525073211 65 32 2.0 4.0 0.00 0.00 0.00 69 1025.3
20170525072211 64 14 3.0 4.0 0.00 0.00 0.00 71 1025.4
20170525071211 64 31 3.0 6.0 0.00 0.00 0.00 72 1025.5
20170525070210 63 15 3.0 6.0 0.00 0.00 0.00 74 1025.3
20170525065211 62 7 3.0 7.0 0.00 0.00 0.00 77 1025.3
20170525064209 62 16 4.0 5.0 0.00 0.00 0.00 82 1025.2
20170525063209 60 32 2.0 5.0 0.00 0.00 0.00 86 1025.1
20170525062209 59 10 2.0 3.0 0.00 0.00 0.00 90 1025.1
20170525061207 58 5 1.0 4.0 0.00 0.00 0.00 92 1025.1
20170525060208 57 9 2.0 4.0 0.00 0.00 0.00 93 1025.1
20170525055207 55 3 2.0 4.0 0.00 0.00 0.00 93 1025.1
20170525054207 54 342 0.0 2.0 0.00 0.00 0.00 93 1025.2
20170525053207 53 342 2.0 3.0 0.00 0.00 0.00 93 1025.2
20170525052208 53 341 0.0 2.0 0.00 0.00 0.00 93 1025.1
20170525051207 52 341 1.0 2.0 0.00 0.00 0.00 93 1025.0
20170525050207 51 339 0.0 2.0 0.00 0.00 0.00 93 1025.0
20170525045207 50 339 0.0 2.0 0.00 0.00 0.00 92 1024.9
20170525044206 50 339 0.0 0.0 0.00 0.00 0.00 92 1024.9
20170525043206 49 339 0.0 0.0 0.00 0.00 0.00 92 1024.8
20170525042205 49 339 0.0 0.0 0.00 0.00 0.00 92 1025.0
20170525041206 49 339 0.0 0.0 0.00 0.00 0.00 92 1024.8
20170525040205 49 339 0.0 0.0 0.00 0.00 0.00 92 1024.8
20170525035205 49 339 0.0 0.0 0.00 0.00 0.00 92 1024.7
20170525034202 49 339 0.0 0.0 0.00 0.00 0.00 92 1024.8
20170525033202 50 339 0.0 0.0 0.00 0.00 0.00 92 1024.7
20170525032204 50 339 0.0 0.0 0.00 0.00 0.00 92 1024.6
20170525031204 50 339 0.0 0.0 0.00 0.00 0.00 92 1024.5
20170525030202 50 339 0.0 0.0 0.00 0.00 0.00 92 1024.5
20170525025203 50 339 0.0 0.0 0.00 0.00 0.00 92 1024.4
20170525024204 50 339 0.0 1.0 0.00 0.00 0.00 92 1024.4
20170525023204 51 339 0.0 1.0 0.00 0.00 0.00 92 1024.5
20170525022202 51 339 0.0 2.0 0.00 0.00 0.00 92 1024.5
20170525021202 51 339 0.0 1.0 0.00 0.00 0.00 92 1024.6
20170525020203 51 339 0.0 2.0 0.00 0.00 0.00 92 1024.7
20170525015203 51 339 0.0 1.0 0.00 0.00 0.00 92 1024.7
20170525014201 51 339 0.0 1.0 0.00 0.00 0.00 92 1024.7
20170525013157 51 339 0.0 1.0 0.00 0.00 0.00 92 1024.7
20170525012157 52 339 0.0 0.0 0.00 0.00 0.00 92 1024.8
20170525011158 52 339 0.0 2.0 0.00 0.00 0.00 92 1024.8
20170525010157 52 339 1.0 2.0 0.00 0.00 0.00 92 1024.9
20170525005156 52 339 0.0 3.0 0.00 0.00 0.00 91 1025.0
20170525004156 53 335 2.0 3.0 0.00 0.00 0.00 92 1025.0
20170525003156 53 16 1.0 3.0 0.00 0.00 0.00 92 1025.0
20170525002156 53 331 2.0 3.0 0.00 0.00 0.00 91 1025.0
20170525001156 53 332 2.0 3.0 0.00 0.00 0.00 91 1024.9
20170525000156 53 328 2.0 3.0 0.00 0.00 0.00 91 1025.0
20170524235155 53 332 0.0 4.0 0.00 0.00 0.00 91 1025.0
20170524234156 53 331 3.0 4.0 0.00 0.00 0.00 91 1025.1
20170524233155 53 332 1.0 4.0 0.00 0.00 0.00 91 1025.1
20170524232155 53 311 3.0 4.0 0.00 0.00 0.00 91 1025.1
20170524231154 53 331 2.0 4.0 0.00 0.00 0.00 91 1025.1
20170524230154 53 313 2.0 3.0 0.00 0.00 0.00 91 1024.9
20170524225156 53 341 2.0 3.0 0.00 0.00 0.00 90 1024.9
20170524224154 53 334 2.0 3.0 0.00 0.00 0.00 90 1024.9
20170524223153 53 16 1.0 2.0 0.00 0.00 0.00 90 1024.9
20170524222154 53 16 0.0 3.0 0.00 0.00 0.00 90 1024.8
20170524221153 54 16 2.0 3.0 0.00 0.00 0.00 90 1024.9
20170524220154 54 16 1.0 4.0 0.00 0.00 0.00 89 1024.8
20170524215152 54 16 2.0 3.0 0.00 0.00 0.00 89 1024.9
20170524214152 54 16 1.0 3.0 0.00 0.00 0.00 89 1024.9
20170524213152 54 16 1.0 4.0 0.00 0.00 0.00 89 1024.9
20170524212152 54 334 2.0 3.0 0.00 0.00 0.00 89 1024.9
20170524211151 54 342 1.0 3.0 0.00 0.00 0.00 88 1024.9
20170524210151 55 10 1.0 4.0 0.00 0.00 0.00 88 1024.9
20170524205152 55 8 2.0 4.0 0.00 0.00 0.00 88 1024.9
20170524204152 55 342 2.0 3.0 0.00 0.00 0.00 88 1025.0
20170524203154 55 16 2.0 4.0 0.00 0.00 0.00 87 1025.0
20170524202154 55 9 2.0 5.0 0.00 0.00 0.00 87 1025.0